Find STARLINK-37336

NORAD ID: 799501208 Int'l Des: 2026-161D Constellation: starlink operational

Aktuelle Ansicht

3D-Globus wird geladen...

About STARLINK-37336

STARLINK-37336 (NORAD 799501208) is a starlink constellation satellite launched Jul 14, 2026

Über STARLINK-37336

Beschreibung wird geladen...

Nächste Überflüge

Passes for default location (London). Set your location on the main map for personalized predictions.

Höhenverlauf

Loading altitude history...

Zweizeiliger Elementsatz

1 99999C 2026161D 26195.69354167 .00515080 00000-0 544530-4 0 1959
2 99999 53.1644 325.2831 0009452 280.6893 102.3302 16.09185638 19
Epoch: 14. Juli 2026 • Age: 4 hours